NAVSTAR 60 (USA 196)    
1 32260U 07047A   19257.26392751 -.00000013  00000-0  00000+0 0  9994
2 32260  53.1741 182.2800 0115451  45.5275 315.4129  2.00575690 87332
DELTA 2 R/B(2) [PAM-D]  
1 32261U 07047B   19257.82333362  .00184482  33746-5  54794-3 0  9993
2 32261  39.6595  14.1243 1713008  44.7653 327.9160 12.31365808303222